Year,Month,Day,Hour,Minute,Value (Times are PST for windspeed in km/hr)
2016,03,15,00,00,7.20
2016,03,15,00,01,7.40
2016,03,15,00,02,9.70
2016,03,15,00,03,12.30
2016,03,15,00,04,6.00
2016,03,15,00,05,8.50
2016,03,15,00,06,7.30
2016,03,15,00,07,6.70
2016,03,15,00,08,9.70
2016,03,15,00,09,7.70
2016,03,15,00,10,6.60
2016,03,15,00,11,9.40
2016,03,15,00,12,10.00
2016,03,15,00,13,4.00
2016,03,15,00,14,7.30
2016,03,15,00,15,5.80
2016,03,15,00,16,5.90
2016,03,15,00,17,12.50
2016,03,15,00,18,8.50
2016,03,15,00,19,10.00
2016,03,15,00,20,6.80
2016,03,15,00,21,13.20
2016,03,15,00,22,9.60
2016,03,15,00,23,13.90
2016,03,15,00,24,13.50
2016,03,15,00,25,11.60
2016,03,15,00,26,8.50
2016,03,15,00,27,9.70
2016,03,15,00,28,14.20
2016,03,15,00,29,12.20
2016,03,15,00,30,13.90
2016,03,15,00,31,8.40
2016,03,15,00,32,12.90
2016,03,15,00,33,9.80
2016,03,15,00,34,8.80
2016,03,15,00,35,4.80
2016,03,15,00,36,5.90
2016,03,15,00,37,5.80
2016,03,15,00,38,7.30
2016,03,15,00,39,8.70
2016,03,15,00,40,6.10
2016,03,15,00,41,10.90
2016,03,15,00,42,10.90
2016,03,15,00,43,9.00
2016,03,15,00,44,11.90
2016,03,15,00,45,9.80
2016,03,15,00,46,5.20
2016,03,15,00,47,5.70
2016,03,15,00,48,16.20
2016,03,15,00,49,10.30
2016,03,15,00,50,8.30
2016,03,15,00,51,15.30
2016,03,15,00,52,17.60
2016,03,15,00,53,10.20
2016,03,15,00,54,11.60
2016,03,15,00,55,6.70
2016,03,15,00,56,9.50
2016,03,15,00,57,10.20
2016,03,15,00,58,10.60
2016,03,15,00,59,10.20
2016,03,15,01,00,6.50
2016,03,15,01,01,7.90
2016,03,15,01,02,6.90
2016,03,15,01,03,7.50
2016,03,15,01,04,13.90
2016,03,15,01,05,6.70
2016,03,15,01,06,6.50
2016,03,15,01,07,12.90
2016,03,15,01,08,9.70
2016,03,15,01,09,5.70
2016,03,15,01,10,7.00
2016,03,15,01,11,7.30
2016,03,15,01,12,8.30
2016,03,15,01,13,10.80
2016,03,15,01,14,10.20
2016,03,15,01,15,7.80
2016,03,15,01,16,9.20
2016,03,15,01,17,9.20
2016,03,15,01,18,6.60
2016,03,15,01,19,6.70
2016,03,15,01,20,5.10
2016,03,15,01,21,6.10
2016,03,15,01,22,6.90
2016,03,15,01,23,7.30
2016,03,15,01,24,8.40
2016,03,15,01,25,7.90
2016,03,15,01,26,9.00
2016,03,15,01,27,7.50
2016,03,15,01,28,6.70
2016,03,15,01,29,7.30
2016,03,15,01,30,9.70
2016,03,15,01,31,7.10
2016,03,15,01,32,9.50
2016,03,15,01,33,9.00
2016,03,15,01,34,5.50
2016,03,15,01,35,5.00
2016,03,15,01,36,7.00
2016,03,15,01,37,8.70
2016,03,15,01,38,10.50
2016,03,15,01,39,10.40
2016,03,15,01,40,8.60
2016,03,15,01,41,12.10
2016,03,15,01,42,9.80
2016,03,15,01,43,9.20
2016,03,15,01,44,9.20
2016,03,15,01,45,7.30
2016,03,15,01,46,10.10
2016,03,15,01,47,10.10
2016,03,15,01,48,8.50
2016,03,15,01,49,7.80
2016,03,15,01,50,11.10
2016,03,15,01,51,7.30
2016,03,15,01,52,6.30
2016,03,15,01,53,6.70
2016,03,15,01,54,8.20
2016,03,15,01,55,6.80
2016,03,15,01,56,5.90
2016,03,15,01,57,9.20
2016,03,15,01,58,7.80
2016,03,15,01,59,5.50
2016,03,15,02,00,6.20
2016,03,15,02,01,7.30
2016,03,15,02,02,5.00
2016,03,15,02,03,1.80
2016,03,15,02,04,5.80
2016,03,15,02,05,3.60
2016,03,15,02,06,3.90
2016,03,15,02,07,4.10
2016,03,15,02,08,8.50
2016,03,15,02,09,6.60
2016,03,15,02,10,3.10
2016,03,15,02,11,2.30
2016,03,15,02,12,3.80
2016,03,15,02,13,7.10
2016,03,15,02,14,6.20
2016,03,15,02,15,4.00
2016,03,15,02,16,5.90
2016,03,15,02,17,5.20
2016,03,15,02,18,4.50
2016,03,15,02,19,3.50
2016,03,15,02,20,4.00
2016,03,15,02,21,5.70
2016,03,15,02,22,3.80
2016,03,15,02,23,3.40
2016,03,15,02,24,3.20
2016,03,15,02,25,3.80
2016,03,15,02,26,5.60
2016,03,15,02,27,5.10
2016,03,15,02,28,4.10
2016,03,15,02,29,3.40
2016,03,15,02,30,5.70
2016,03,15,02,31,4.50
2016,03,15,02,32,2.60
2016,03,15,02,33,1.20
2016,03,15,02,34,5.30
2016,03,15,02,35,2.60
2016,03,15,02,36,0.80
2016,03,15,02,37,2.20
2016,03,15,02,38,3.20
2016,03,15,02,39,2.50
2016,03,15,02,40,3.50
2016,03,15,02,41,4.10
2016,03,15,02,42,5.00
2016,03,15,02,43,2.30
2016,03,15,02,44,5.20
2016,03,15,02,45,4.20
2016,03,15,02,46,3.90
2016,03,15,02,47,3.60
2016,03,15,02,48,3.50
2016,03,15,02,49,3.50
2016,03,15,02,50,4.20
2016,03,15,02,51,4.30
2016,03,15,02,52,4.10
2016,03,15,02,53,4.80
2016,03,15,02,54,3.90
2016,03,15,02,55,2.50
2016,03,15,02,56,2.40
2016,03,15,02,57,3.30
2016,03,15,02,58,2.40
2016,03,15,02,59,6.40
2016,03,15,03,00,2.90
2016,03,15,03,01,2.10
2016,03,15,03,02,4.60
2016,03,15,03,03,5.60
2016,03,15,03,04,4.70
2016,03,15,03,05,5.10
2016,03,15,03,06,4.90
2016,03,15,03,07,6.40
2016,03,15,03,08,4.40
2016,03,15,03,09,3.40
2016,03,15,03,10,1.80
2016,03,15,03,11,3.40
2016,03,15,03,12,1.70
2016,03,15,03,13,3.10
2016,03,15,03,14,4.80
2016,03,15,03,15,3.90
2016,03,15,03,16,3.50
2016,03,15,03,17,2.20
2016,03,15,03,18,2.70
2016,03,15,03,19,4.30
2016,03,15,03,20,4.10
2016,03,15,03,21,5.20
2016,03,15,03,22,4.10
2016,03,15,03,23,3.70
2016,03,15,03,24,4.50
2016,03,15,03,25,4.50
2016,03,15,03,26,4.50
2016,03,15,03,27,1.70
2016,03,15,03,28,2.90
2016,03,15,03,29,7.40
2016,03,15,03,30,4.40
2016,03,15,03,31,2.70
2016,03,15,03,32,3.00
2016,03,15,03,33,2.70
2016,03,15,03,34,2.60
2016,03,15,03,35,5.70
2016,03,15,03,36,4.50
2016,03,15,03,37,2.90
2016,03,15,03,38,6.00
2016,03,15,03,39,5.80
2016,03,15,03,40,4.90
2016,03,15,03,41,8.30
2016,03,15,03,42,6.70
2016,03,15,03,43,8.50
2016,03,15,03,44,4.80
2016,03,15,03,45,6.20
2016,03,15,03,46,7.20
2016,03,15,03,47,4.50
2016,03,15,03,48,5.60
2016,03,15,03,49,5.30
2016,03,15,03,50,4.80
2016,03,15,03,51,4.70
2016,03,15,03,52,5.90
2016,03,15,03,53,4.20
2016,03,15,03,54,5.00
2016,03,15,03,55,4.60
2016,03,15,03,56,1.10
2016,03,15,03,57,3.30
2016,03,15,03,58,3.80
2016,03,15,03,59,6.00
2016,03,15,04,00,6.90
2016,03,15,04,01,3.60
2016,03,15,04,02,9.50
2016,03,15,04,03,6.00
2016,03,15,04,04,3.10
2016,03,15,04,05,4.30
2016,03,15,04,06,3.60
2016,03,15,04,07,6.90
2016,03,15,04,08,5.60
2016,03,15,04,09,5.00
2016,03,15,04,10,8.70
2016,03,15,04,11,5.90
2016,03,15,04,12,9.60
2016,03,15,04,13,5.20
2016,03,15,04,14,5.10
2016,03,15,04,15,5.10
2016,03,15,04,16,3.50
2016,03,15,04,17,4.40
2016,03,15,04,18,3.10
2016,03,15,04,19,9.00
2016,03,15,04,20,6.40
2016,03,15,04,21,10.60
2016,03,15,04,22,6.40
2016,03,15,04,23,2.40
2016,03,15,04,24,8.60
2016,03,15,04,25,5.80
2016,03,15,04,26,7.60
2016,03,15,04,27,9.10
2016,03,15,04,28,3.60
2016,03,15,04,29,6.60
2016,03,15,04,30,5.30
2016,03,15,04,31,5.30
2016,03,15,04,32,3.50
2016,03,15,04,33,6.70
2016,03,15,04,34,5.40
2016,03,15,04,35,5.00
2016,03,15,04,36,7.00
2016,03,15,04,37,5.60
2016,03,15,04,38,3.10
2016,03,15,04,39,6.30
2016,03,15,04,40,6.20
2016,03,15,04,41,4.60
2016,03,15,04,42,6.00
2016,03,15,04,43,6.80
2016,03,15,04,44,9.10
2016,03,15,04,45,3.10
2016,03,15,04,46,6.10
2016,03,15,04,47,6.10
2016,03,15,04,48,5.50
2016,03,15,04,49,5.90
2016,03,15,04,50,4.70
2016,03,15,04,51,4.90
2016,03,15,04,52,2.70
2016,03,15,04,53,5.70
2016,03,15,04,54,3.70
2016,03,15,04,55,2.60
2016,03,15,04,56,3.70
2016,03,15,04,57,5.00
2016,03,15,04,58,4.00
2016,03,15,04,59,1.60
2016,03,15,05,00,2.90
2016,03,15,05,01,6.40
2016,03,15,05,02,4.10
2016,03,15,05,03,4.30
2016,03,15,05,04,5.50
2016,03,15,05,05,2.80
2016,03,15,05,06,4.80
2016,03,15,05,07,1.70
2016,03,15,05,08,4.10
2016,03,15,05,09,4.70
2016,03,15,05,10,1.50
2016,03,15,05,11,1.10
2016,03,15,05,12,1.20
2016,03,15,05,13,3.20
2016,03,15,05,14,3.00
2016,03,15,05,15,3.70
2016,03,15,05,16,2.60
2016,03,15,05,17,3.00
2016,03,15,05,18,0.80
2016,03,15,05,19,0.30
2016,03,15,05,20,0.10
2016,03,15,05,21,0.60
2016,03,15,05,22,1.80
2016,03,15,05,23,1.80
2016,03,15,05,24,0.80
2016,03,15,05,25,0.20
2016,03,15,05,26,0.90
2016,03,15,05,27,1.00
2016,03,15,05,28,1.80
2016,03,15,05,29,0.90
2016,03,15,05,30,1.60
2016,03,15,05,31,2.40
2016,03,15,05,32,4.90
2016,03,15,05,33,6.20
2016,03,15,05,34,3.40
2016,03,15,05,35,2.50
2016,03,15,05,36,5.60
2016,03,15,05,37,6.30
2016,03,15,05,38,4.10
2016,03,15,05,39,4.00
2016,03,15,05,40,1.60
2016,03,15,05,41,0.10
2016,03,15,05,42,1.50
2016,03,15,05,43,4.70
2016,03,15,05,44,3.60
2016,03,15,05,45,4.00
2016,03,15,05,46,4.50
2016,03,15,05,47,3.40
2016,03,15,05,48,4.80
2016,03,15,05,49,5.50
2016,03,15,05,50,3.60
2016,03,15,05,51,4.40
2016,03,15,05,52,1.80
2016,03,15,05,53,4.20
2016,03,15,05,54,6.40
2016,03,15,05,55,7.00
2016,03,15,05,56,5.70
2016,03,15,05,57,7.70
2016,03,15,05,58,5.40
2016,03,15,05,59,6.80
2016,03,15,06,00,4.30
2016,03,15,06,01,0.90
2016,03,15,06,02,5.30
2016,03,15,06,03,4.60
2016,03,15,06,04,5.30
2016,03,15,06,05,2.80
2016,03,15,06,06,2.10
2016,03,15,06,07,1.90
2016,03,15,06,08,4.10
2016,03,15,06,09,3.10
2016,03,15,06,10,4.30
2016,03,15,06,11,5.90
2016,03,15,06,12,7.20
2016,03,15,06,13,4.20
2016,03,15,06,14,5.00
2016,03,15,06,15,4.20
2016,03,15,06,16,3.40
2016,03,15,06,17,4.30
2016,03,15,06,18,9.10
2016,03,15,06,19,6.80
2016,03,15,06,20,6.40
2016,03,15,06,21,4.60
2016,03,15,06,22,4.50
2016,03,15,06,23,5.10
2016,03,15,06,24,7.10
2016,03,15,06,25,5.00
2016,03,15,06,26,3.10
2016,03,15,06,27,3.20
2016,03,15,06,28,4.00
2016,03,15,06,29,5.10
2016,03,15,06,30,6.50
2016,03,15,06,31,4.80
2016,03,15,06,32,3.90
2016,03,15,06,33,4.10
2016,03,15,06,34,2.00
2016,03,15,06,35,4.20
2016,03,15,06,36,4.30
2016,03,15,06,37,4.50
2016,03,15,06,38,4.40
2016,03,15,06,39,3.80
2016,03,15,06,40,1.70
2016,03,15,06,41,2.90
2016,03,15,06,42,0.90
2016,03,15,06,43,1.50
2016,03,15,06,44,3.20
2016,03,15,06,45,6.80
2016,03,15,06,46,3.10
2016,03,15,06,47,4.20
2016,03,15,06,48,3.80
2016,03,15,06,49,4.70
2016,03,15,06,50,5.10
2016,03,15,06,51,6.20
2016,03,15,06,52,3.10
2016,03,15,06,53,4.00
2016,03,15,06,54,4.50
2016,03,15,06,55,2.50
2016,03,15,06,56,2.50
2016,03,15,06,57,4.70
2016,03,15,06,58,2.90
2016,03,15,06,59,3.60
2016,03,15,07,00,3.80
2016,03,15,07,01,2.50
2016,03,15,07,02,1.80
2016,03,15,07,03,2.80
2016,03,15,07,04,1.70
2016,03,15,07,05,2.30
2016,03,15,07,06,1.80
2016,03,15,07,07,1.10
2016,03,15,07,08,1.00
2016,03,15,07,09,2.60
2016,03,15,07,10,1.30
2016,03,15,07,11,2.20
2016,03,15,07,12,1.90
2016,03,15,07,13,2.10
2016,03,15,07,14,1.70
2016,03,15,07,15,1.80
2016,03,15,07,16,3.50
2016,03,15,07,17,2.70
2016,03,15,07,18,3.10
2016,03,15,07,19,3.20
2016,03,15,07,20,1.00
2016,03,15,07,21,2.20
2016,03,15,07,22,2.00
2016,03,15,07,23,2.30
2016,03,15,07,24,2.70
2016,03,15,07,25,1.50
2016,03,15,07,26,2.10
2016,03,15,07,27,1.90
2016,03,15,07,28,0.50
2016,03,15,07,29,1.90
2016,03,15,07,30,2.40
2016,03,15,07,31,2.10
2016,03,15,07,32,2.90
2016,03,15,07,33,1.90
2016,03,15,07,34,0.50
2016,03,15,07,35,0.70
2016,03,15,07,36,0.80
2016,03,15,07,37,0.90
2016,03,15,07,38,2.00
2016,03,15,07,39,0.30
2016,03,15,07,40,1.00
2016,03,15,07,41,0.70
2016,03,15,07,42,0.70
2016,03,15,07,43,1.30
2016,03,15,07,44,1.10
2016,03,15,07,45,1.00
2016,03,15,07,46,0.60
2016,03,15,07,47,1.10
2016,03,15,07,48,0.40
2016,03,15,07,49,0.10
2016,03,15,07,50,0.10
2016,03,15,07,51,0.10
2016,03,15,07,52,1.50
2016,03,15,07,53,1.50
2016,03,15,07,54,1.10
2016,03,15,07,55,1.50
2016,03,15,07,56,1.60
2016,03,15,07,57,1.80
2016,03,15,07,58,2.10
2016,03,15,07,59,1.70
2016,03,15,08,00,0.80
2016,03,15,08,01,1.50
2016,03,15,08,02,0.10
2016,03,15,08,03,1.30
2016,03,15,08,04,2.90
2016,03,15,08,05,2.70
2016,03,15,08,06,1.50
2016,03,15,08,07,1.10
2016,03,15,08,08,1.70
2016,03,15,08,09,1.50
2016,03,15,08,10,1.70
2016,03,15,08,11,1.80
2016,03,15,08,12,1.80
2016,03,15,08,13,3.10
2016,03,15,08,14,1.50
2016,03,15,08,15,1.60
2016,03,15,08,16,2.10
2016,03,15,08,17,2.70
2016,03,15,08,18,1.40
2016,03,15,08,19,1.00
2016,03,15,08,20,1.50
2016,03,15,08,21,2.00
2016,03,15,08,22,3.00
2016,03,15,08,23,2.50
2016,03,15,08,24,1.40
2016,03,15,08,25,1.50
2016,03,15,08,26,2.30
2016,03,15,08,27,4.40
2016,03,15,08,28,2.80
2016,03,15,08,29,3.70
2016,03,15,08,30,3.20
2016,03,15,08,31,2.30
2016,03,15,08,32,1.10
2016,03,15,08,33,1.10
2016,03,15,08,34,1.20
2016,03,15,08,35,1.80
2016,03,15,08,36,0.90
2016,03,15,08,37,2.10
2016,03,15,08,38,4.50
2016,03,15,08,39,2.70
2016,03,15,08,40,2.10
2016,03,15,08,41,2.00
2016,03,15,08,42,3.60
2016,03,15,08,43,3.20
2016,03,15,08,44,2.10
2016,03,15,08,45,2.10
2016,03,15,08,46,2.30
2016,03,15,08,47,2.70
2016,03,15,08,48,1.80
2016,03,15,08,49,1.80
2016,03,15,08,50,1.80
2016,03,15,08,51,1.30
2016,03,15,08,52,0.30
2016,03,15,08,53,1.60
2016,03,15,08,54,2.80
2016,03,15,08,55,2.50
2016,03,15,08,56,0.90
2016,03,15,08,57,0.30
2016,03,15,08,58,1.80
2016,03,15,08,59,1.30
2016,03,15,09,00,2.00
2016,03,15,09,01,2.50
2016,03,15,09,02,3.10
2016,03,15,09,03,1.80
2016,03,15,09,04,3.10
2016,03,15,09,05,2.00
2016,03,15,09,06,1.30
2016,03,15,09,07,1.80
2016,03,15,09,08,1.00
2016,03,15,09,09,2.30
2016,03,15,09,10,0.60
2016,03,15,09,11,1.60
2016,03,15,09,12,1.10
2016,03,15,09,13,0.60
2016,03,15,09,14,0.90
2016,03,15,09,15,0.70
2016,03,15,09,16,0.70
2016,03,15,09,17,0.80
2016,03,15,09,18,0.10
2016,03,15,09,19,0.10
2016,03,15,09,20,0.60
2016,03,15,09,21,1.10
2016,03,15,09,22,1.60
2016,03,15,09,23,0.80
2016,03,15,09,24,0.40
2016,03,15,09,25,1.00
2016,03,15,09,26,0.00
2016,03,15,09,27,0.00
2016,03,15,09,28,0.00
2016,03,15,09,29,0.60
2016,03,15,09,30,2.60
2016,03,15,09,31,3.70
2016,03,15,09,32,1.30
2016,03,15,09,33,1.10
2016,03,15,09,34,1.50
2016,03,15,09,35,1.80
2016,03,15,09,36,2.30
2016,03,15,09,37,3.10
2016,03,15,09,38,1.00
2016,03,15,09,39,1.00
2016,03,15,09,40,0.70
2016,03,15,09,41,1.80
2016,03,15,09,42,2.50
2016,03,15,09,43,0.70
2016,03,15,09,44,1.30
2016,03,15,09,45,2.70
2016,03,15,09,46,3.50
2016,03,15,09,47,2.50
2016,03,15,09,48,2.60
2016,03,15,09,49,2.20
2016,03,15,09,50,1.40
2016,03,15,09,51,1.40
2016,03,15,09,52,1.60
2016,03,15,09,53,4.40
2016,03,15,09,54,5.70
2016,03,15,09,55,3.40
2016,03,15,09,56,3.60
2016,03,15,09,57,4.50
2016,03,15,09,58,6.00
2016,03,15,09,59,5.60
2016,03,15,10,00,3.30
2016,03,15,10,01,4.60
2016,03,15,10,02,2.90
2016,03,15,10,03,6.00
2016,03,15,10,04,5.40
2016,03,15,10,05,4.10
2016,03,15,10,06,3.90
2016,03,15,10,07,3.70
2016,03,15,10,08,3.60
2016,03,15,10,09,4.30
2016,03,15,10,10,4.10
2016,03,15,10,11,6.20
2016,03,15,10,12,5.90
2016,03,15,10,13,3.50
2016,03,15,10,14,2.80
2016,03,15,10,15,4.30
2016,03,15,10,16,2.60
2016,03,15,10,17,3.10
2016,03,15,10,18,2.70
2016,03,15,10,19,6.20
2016,03,15,10,20,8.10
2016,03,15,10,21,6.70
2016,03,15,10,22,3.60
2016,03,15,10,23,3.00
2016,03,15,10,24,2.40
2016,03,15,10,25,3.60
2016,03,15,10,26,4.40
2016,03,15,10,27,5.90
2016,03,15,10,28,7.40
2016,03,15,10,29,5.90
2016,03,15,10,30,7.30
2016,03,15,10,31,5.20
2016,03,15,10,32,7.80
2016,03,15,10,33,5.40
2016,03,15,10,34,5.00
2016,03,15,10,35,5.90
2016,03,15,10,36,4.30
2016,03,15,10,37,7.00
2016,03,15,10,38,7.50
2016,03,15,10,39,6.90
2016,03,15,10,40,2.70
2016,03,15,10,41,5.90
2016,03,15,10,42,5.60
2016,03,15,10,43,6.90
2016,03,15,10,44,9.00
2016,03,15,10,45,8.60
2016,03,15,10,46,8.70
2016,03,15,10,47,6.90
2016,03,15,10,48,4.00
2016,03,15,10,49,4.00
2016,03,15,10,50,8.60
2016,03,15,10,51,7.60
2016,03,15,10,52,8.40
2016,03,15,10,53,6.30
2016,03,15,10,54,4.20
2016,03,15,10,55,6.10
2016,03,15,10,56,4.10
2016,03,15,10,57,7.60
2016,03,15,10,58,3.90
2016,03,15,10,59,6.40
2016,03,15,11,00,7.80
2016,03,15,11,01,3.40
2016,03,15,11,02,3.10
2016,03,15,11,03,2.90
2016,03,15,11,04,2.90
2016,03,15,11,05,8.20
2016,03,15,11,06,6.60
2016,03,15,11,07,7.80
2016,03,15,11,08,3.80
2016,03,15,11,09,4.70
2016,03,15,11,10,7.10
2016,03,15,11,11,5.50
2016,03,15,11,12,6.10
2016,03,15,11,13,7.40
2016,03,15,11,14,5.60
2016,03,15,11,15,4.70
2016,03,15,11,16,2.90
2016,03,15,11,17,3.90
2016,03,15,11,18,2.30
2016,03,15,11,19,2.30
2016,03,15,11,20,4.10
2016,03,15,11,21,5.00
2016,03,15,11,22,1.90
2016,03,15,11,23,5.30
2016,03,15,11,24,8.50
2016,03,15,11,25,9.40
2016,03,15,11,26,9.50
2016,03,15,11,27,8.20
2016,03,15,11,28,5.70
2016,03,15,11,29,6.70
2016,03,15,11,30,6.40
2016,03,15,11,31,4.60
2016,03,15,11,32,7.20
2016,03,15,11,33,4.80
2016,03,15,11,34,4.60
2016,03,15,11,35,6.30
2016,03,15,11,36,8.20
2016,03,15,11,37,6.50
2016,03,15,11,38,4.10
2016,03,15,11,39,3.70
2016,03,15,11,40,5.10
2016,03,15,11,41,12.00
2016,03,15,11,42,9.60
2016,03,15,11,43,4.50
2016,03,15,11,44,5.90
2016,03,15,11,45,8.90
2016,03,15,11,46,5.40
2016,03,15,11,47,3.80
2016,03,15,11,48,7.70
2016,03,15,11,49,6.80
2016,03,15,11,50,8.30
2016,03,15,11,51,10.60
2016,03,15,11,52,8.90
2016,03,15,11,53,7.10
2016,03,15,11,54,6.80
2016,03,15,11,55,7.50
2016,03,15,11,56,6.50
2016,03,15,11,57,7.10
2016,03,15,11,58,5.60
2016,03,15,11,59,5.10
2016,03,15,12,00,5.10
2016,03,15,12,01,5.70
2016,03,15,12,02,5.70
2016,03,15,12,03,7.60
2016,03,15,12,04,9.70
2016,03,15,12,05,8.50
2016,03,15,12,06,9.60
2016,03,15,12,07,5.20
2016,03,15,12,08,7.60
2016,03,15,12,09,9.60
2016,03,15,12,10,7.10
2016,03,15,12,11,6.00
2016,03,15,12,12,3.40
2016,03,15,12,13,3.70
2016,03,15,12,14,3.70
2016,03,15,12,15,7.10
2016,03,15,12,16,9.00
2016,03,15,12,17,9.40
2016,03,15,12,18,8.70
2016,03,15,12,19,5.90
2016,03,15,12,20,1.80
2016,03,15,12,21,5.50
2016,03,15,12,22,3.90
2016,03,15,12,23,6.70
2016,03,15,12,24,7.40
2016,03,15,12,25,8.20
2016,03,15,12,26,5.30
2016,03,15,12,27,5.60
2016,03,15,12,28,6.00
2016,03,15,12,29,7.00
2016,03,15,12,30,10.70
2016,03,15,12,31,9.50
2016,03,15,12,32,7.30
2016,03,15,12,33,7.80
2016,03,15,12,34,6.60
2016,03,15,12,35,11.10
2016,03,15,12,36,13.10
2016,03,15,12,37,10.30
2016,03,15,12,38,9.40
2016,03,15,12,39,9.00
2016,03,15,12,40,9.20
2016,03,15,12,41,8.90
2016,03,15,12,42,10.70
2016,03,15,12,43,7.20
2016,03,15,12,44,8.50
2016,03,15,12,45,9.60
2016,03,15,12,46,5.40
2016,03,15,12,47,7.80
2016,03,15,12,48,7.00
2016,03,15,12,49,7.20
2016,03,15,12,50,7.60
2016,03,15,12,51,7.20
2016,03,15,12,52,9.50
2016,03,15,12,53,9.30
2016,03,15,12,54,8.00
2016,03,15,12,55,7.80
2016,03,15,12,56,8.20
2016,03,15,12,57,9.80
2016,03,15,12,58,9.00
2016,03,15,12,59,10.80
2016,03,15,13,00,12.90
2016,03,15,13,01,8.60
2016,03,15,13,02,6.10
2016,03,15,13,03,10.30
2016,03,15,13,04,7.40
2016,03,15,13,05,8.70
2016,03,15,13,06,11.80
2016,03,15,13,07,9.60
2016,03,15,13,08,8.70
2016,03,15,13,09,7.70
2016,03,15,13,10,6.90
2016,03,15,13,11,8.50
2016,03,15,13,12,12.00
2016,03,15,13,13,11.10
2016,03,15,13,14,10.60
2016,03,15,13,15,13.00
2016,03,15,13,16,12.70
2016,03,15,13,17,10.10
2016,03,15,13,18,10.70
2016,03,15,13,19,8.70
2016,03,15,13,20,8.20
2016,03,15,13,21,10.00
2016,03,15,13,22,10.60
2016,03,15,13,23,10.90
2016,03,15,13,24,12.00
2016,03,15,13,25,11.60
2016,03,15,13,26,11.10
2016,03,15,13,27,12.20
2016,03,15,13,28,12.70
2016,03,15,13,29,8.50
2016,03,15,13,30,12.90
2016,03,15,13,31,13.40
2016,03,15,13,32,12.20
2016,03,15,13,33,14.40
2016,03,15,13,34,10.70
2016,03,15,13,35,7.00
2016,03,15,13,36,10.40
2016,03,15,13,37,9.10
2016,03,15,13,38,9.60
2016,03,15,13,39,9.30
2016,03,15,13,40,5.70
2016,03,15,13,41,6.60
2016,03,15,13,42,9.40
2016,03,15,13,43,7.60
2016,03,15,13,44,11.10
2016,03,15,13,45,7.30
2016,03,15,13,46,7.10
2016,03,15,13,47,13.20
2016,03,15,13,48,9.30
2016,03,15,13,49,10.80
2016,03,15,13,50,9.40
2016,03,15,13,51,12.90
2016,03,15,13,52,12.70
2016,03,15,13,53,12.70
2016,03,15,13,54,10.90
2016,03,15,13,55,11.00
2016,03,15,13,56,9.60
2016,03,15,13,57,12.40
2016,03,15,13,58,13.10
2016,03,15,13,59,9.40
2016,03,15,14,00,14.30
2016,03,15,14,01,14.80
2016,03,15,14,02,12.80
2016,03,15,14,03,13.20
2016,03,15,14,04,12.50
2016,03,15,14,05,12.30
2016,03,15,14,06,10.90
2016,03,15,14,07,8.90
2016,03,15,14,08,7.50
2016,03,15,14,09,8.00
2016,03,15,14,10,11.70
2016,03,15,14,11,7.80
2016,03,15,14,12,7.10
2016,03,15,14,13,9.70
2016,03,15,14,14,6.90
2016,03,15,14,15,7.20
2016,03,15,14,16,13.90
2016,03,15,14,17,10.00
2016,03,15,14,18,8.40
2016,03,15,14,19,11.60
2016,03,15,14,20,12.00
2016,03,15,14,21,9.40
2016,03,15,14,22,10.10
2016,03,15,14,23,12.30
2016,03,15,14,24,10.90
2016,03,15,14,25,15.80
2016,03,15,14,26,12.70
2016,03,15,14,27,15.00
2016,03,15,14,28,12.90
2016,03,15,14,29,9.40
2016,03,15,14,30,13.10
2016,03,15,14,31,13.60
2016,03,15,14,32,9.90
2016,03,15,14,33,13.10
2016,03,15,14,34,12.80
2016,03,15,14,35,14.80
2016,03,15,14,36,10.80
2016,03,15,14,37,8.60
2016,03,15,14,38,7.70
2016,03,15,14,39,6.70
2016,03,15,14,40,9.20
2016,03,15,14,41,6.90
2016,03,15,14,42,12.70
2016,03,15,14,43,12.20
2016,03,15,14,44,10.90
2016,03,15,14,45,6.20
2016,03,15,14,46,11.10
2016,03,15,14,47,13.40
2016,03,15,14,48,8.60
2016,03,15,14,49,11.20
2016,03,15,14,50,10.80
2016,03,15,14,51,7.20
2016,03,15,14,52,9.00
2016,03,15,14,53,6.20
2016,03,15,14,54,8.30
2016,03,15,14,55,7.50
2016,03,15,14,56,8.60
2016,03,15,14,57,8.50
2016,03,15,14,58,11.00
2016,03,15,14,59,7.80
2016,03,15,15,00,9.00
2016,03,15,15,01,7.10
2016,03,15,15,02,7.70
2016,03,15,15,03,6.80
2016,03,15,15,04,7.60
2016,03,15,15,05,9.70
2016,03,15,15,06,8.20
2016,03,15,15,07,7.30
2016,03,15,15,08,9.00
2016,03,15,15,09,10.80
2016,03,15,15,10,8.60
2016,03,15,15,11,11.70
2016,03,15,15,12,7.80
2016,03,15,15,13,8.40
2016,03,15,15,14,11.30
2016,03,15,15,15,9.40
2016,03,15,15,16,6.90
2016,03,15,15,17,9.00
2016,03,15,15,18,6.40
2016,03,15,15,19,8.10
2016,03,15,15,20,8.60
2016,03,15,15,21,7.60
2016,03,15,15,22,11.80
2016,03,15,15,23,9.90
2016,03,15,15,24,11.30
2016,03,15,15,25,12.30
2016,03,15,15,26,10.00
2016,03,15,15,27,14.60
2016,03,15,15,28,14.80
2016,03,15,15,29,15.00
2016,03,15,15,30,12.80
2016,03,15,15,31,15.40
2016,03,15,15,32,14.90
2016,03,15,15,33,15.10
2016,03,15,15,34,11.40
2016,03,15,15,35,15.30
2016,03,15,15,36,14.60
2016,03,15,15,37,16.80
2016,03,15,15,38,15.90
2016,03,15,15,39,17.80
2016,03,15,15,40,16.60
2016,03,15,15,41,16.70
2016,03,15,15,42,17.20
2016,03,15,15,43,17.60
2016,03,15,15,44,16.00
2016,03,15,15,45,15.10
2016,03,15,15,46,13.80
2016,03,15,15,47,15.60
2016,03,15,15,48,13.50
2016,03,15,15,49,15.10
2016,03,15,15,50,17.60
2016,03,15,15,51,16.70
2016,03,15,15,52,16.10
2016,03,15,15,53,16.90
2016,03,15,15,54,17.90
2016,03,15,15,55,16.40
2016,03,15,15,56,15.50
2016,03,15,15,57,11.30
2016,03,15,15,58,10.40
2016,03,15,15,59,10.60
2016,03,15,16,00,12.70
2016,03,15,16,01,11.50
2016,03,15,16,02,9.60
2016,03,15,16,03,10.10
2016,03,15,16,04,11.90
2016,03,15,16,05,14.00
2016,03,15,16,06,12.80
2016,03,15,16,07,11.00
2016,03,15,16,08,11.10
2016,03,15,16,09,11.30
2016,03,15,16,10,11.40
2016,03,15,16,11,12.70
2016,03,15,16,12,10.20
2016,03,15,16,13,12.90
2016,03,15,16,14,14.90
2016,03,15,16,15,16.90
2016,03,15,16,16,16.00
2016,03,15,16,17,20.20
2016,03,15,16,18,13.20
2016,03,15,16,19,16.70
2016,03,15,16,20,15.30
2016,03,15,16,21,14.10
2016,03,15,16,22,17.50
2016,03,15,16,23,16.50
2016,03,15,16,24,16.10
2016,03,15,16,25,11.00
2016,03,15,16,26,11.40
2016,03,15,16,27,14.80
2016,03,15,16,28,13.00
2016,03,15,16,29,14.60
2016,03,15,16,30,15.30
2016,03,15,16,31,11.30
2016,03,15,16,32,14.00
2016,03,15,16,33,10.20
2016,03,15,16,34,12.50
2016,03,15,16,35,6.90
2016,03,15,16,36,12.50
2016,03,15,16,37,11.80
2016,03,15,16,38,9.20
2016,03,15,16,39,10.90
2016,03,15,16,40,12.20
2016,03,15,16,41,3.80
2016,03,15,16,42,6.70
2016,03,15,16,43,10.80
2016,03,15,16,44,12.50
2016,03,15,16,45,17.60
2016,03,15,16,46,16.20
2016,03,15,16,47,8.40
2016,03,15,16,48,13.20
2016,03,15,16,49,14.40
2016,03,15,16,50,9.50
2016,03,15,16,51,12.10
2016,03,15,16,52,11.90
2016,03,15,16,53,9.50
2016,03,15,16,54,12.90
2016,03,15,16,55,9.20
2016,03,15,16,56,8.00
2016,03,15,16,57,11.70
2016,03,15,16,58,11.60
2016,03,15,16,59,6.00
2016,03,15,17,00,7.00
2016,03,15,17,01,7.50
2016,03,15,17,02,14.60
2016,03,15,17,03,12.50
2016,03,15,17,04,11.10
2016,03,15,17,05,5.40
2016,03,15,17,06,11.20
2016,03,15,17,07,12.50
2016,03,15,17,08,11.20
2016,03,15,17,09,11.00
2016,03,15,17,10,8.50
2016,03,15,17,11,9.20
2016,03,15,17,12,9.20
2016,03,15,17,13,12.20
2016,03,15,17,14,11.10
2016,03,15,17,15,12.30
2016,03,15,17,16,10.10
2016,03,15,17,17,9.40
2016,03,15,17,18,11.60
2016,03,15,17,19,13.40
2016,03,15,17,20,7.40
2016,03,15,17,21,7.10
2016,03,15,17,22,15.90
2016,03,15,17,23,12.90
2016,03,15,17,24,9.30
2016,03,15,17,25,12.10
2016,03,15,17,26,9.10
2016,03,15,17,27,11.00
2016,03,15,17,28,10.80
2016,03,15,17,29,7.00
2016,03,15,17,30,7.50
2016,03,15,17,31,7.80
2016,03,15,17,32,15.40
2016,03,15,17,33,9.40
2016,03,15,17,34,9.60
2016,03,15,17,35,10.40
2016,03,15,17,36,13.30
2016,03,15,17,37,7.40
2016,03,15,17,38,5.30
2016,03,15,17,39,7.60
2016,03,15,17,40,5.30
2016,03,15,17,41,9.60
2016,03,15,17,42,7.80
2016,03,15,17,43,9.30
2016,03,15,17,44,8.60
2016,03,15,17,45,8.70
2016,03,15,17,46,6.40
2016,03,15,17,47,9.00
2016,03,15,17,48,8.50
2016,03,15,17,49,11.00
2016,03,15,17,50,8.60
2016,03,15,17,51,7.40
2016,03,15,17,52,5.20
2016,03,15,17,53,8.90
2016,03,15,17,54,6.40
2016,03,15,17,55,6.90
2016,03,15,17,56,6.80